Location: Nairn
(57.5833°N, 3.8667°W)
Time: 02:09:40
(UTC+00:00)

GENESIS II - Pass Details

Date: 07 August 2020
Orbit: 490 x 538 km, 64.5° (Epoch: 19 September)

Event Time Altitude Azimuth Distance (km) Brightness Sun altitude
Rises 23:59:19 0° 307° (NW) 2,699 8.5 -15.9°
Reaches altitude 10° 00:01:32 10° 306° (NW) 1,800 7.5 -16.0°
Maximum altitude 00:05:34 73° 222° (SW) 561 4.2 -16.0°
Enters shadow 00:07:37 27° 142° (SE) 1,036 5.3 -16.0°
